QPF
0.00 0.00 0.00 0.00 0.00 0.00 0.00 0.00 0.01 0.01 0.01 0.01 0.01 0.01 0.01 0.02 0.03 0.01 0.02 0.02 0.01 0.02 0.04 0.06 0.07 0.08 0.12 0.17 0.12 0.08 0.07 0.08 0.10 0.10 0.09 0.08 0.08 0.12 0.16 0.16 0.18 0.13 0.12
0.00 0.00 0.00 0.00 0.00 0.00 0.00 0.01 0.01 0.00 0.01 0.01 0.01 0.03 0.03 0.02 0.03 0.02 0.02 0.02 0.01 0.02 0.03 0.04 0.06 0.08 0.11 0.15 0.13 0.10 0.09 0.07 0.08 0.10 0.12 0.14 0.12 0.12 0.18 0.17 0.15 0.11 0.15
0.00 0.00 0.00 0.00 0.00 0.00 0.00 0.01 0.01 0.00 0.00 0.01 0.02 0.07 0.04 0.02 0.02 0.02 0.02 0.02 0.02 0.03 0.02 0.04 0.05 0.09 0.13 0.14 0.16 0.14 0.11 0.09 0.09 0.11 0.12 0.16 0.17 0.15 0.17 0.16 0.13 0.13 0.12
0.00 0.00 0.00 0.00 0.00 0.00 0.00 0.01 0.00 0.00 0.00 0.01 0.02 0.04 0.02 0.02 0.02 0.02 0.02 0.02 0.03 0.04 0.05 0.04 0.04 0.07 0.08 0.09 0.10 0.13 0.12 0.11 0.13 0.12 0.10 0.14 0.18 0.19 0.17 0.13 0.12 0.13 0.11
0.00 0.00 0.00 0.00 0.00 0.00 0.00 0.01 0.00 0.00 0.00 0.00 0.01 0.01 0.01 0.01 0.01 0.02 0.02 0.02 0.04 0.06 0.06 0.05 0.04 0.04 0.04 0.05 0.06 0.08 0.11 0.13 0.13 0.09 0.09 0.13 0.17 0.23 0.20 0.16 0.16 0.15 0.10
0.00 0.00 0.00 0.00 0.00 0.00 0.00 0.00 0.00 0.00 0.00 0.01 0.01 0.01 0.01 0.01 0.01 0.01 0.02 0.01 0.02 0.04 0.06 0.06 0.05 0.05 0.04 0.04 0.04 0.06 0.09 0.13 0.14 0.11 0.10 0.11 0.18 0.26 0.24 0.22 0.19 0.15 0.08
0.00 0.00 0.00 0.00 0.00 0.00 0.00 0.00 0.00 0.01 0.00 0.01 0.01 0.01 0.01 0.01 0.02 0.02 0.01 0.01 0.02 0.03 0.04 0.04 0.04 0.06 0.05 0.03 0.03 0.03 0.07 0.13 0.15 0.13 0.09 0.11 0.16 0.22 0.25 0.26 0.22 0.17 0.11
0.00 0.00 0.00 0.00 0.00 0.00 0.00 0.00 0.01 0.01 0.00 0.01 0.01 0.01 0.01 0.01 0.02 0.02 0.02 0.02 0.02 0.03 0.03 0.04 0.03 0.05 0.07 0.06 0.04 0.04 0.06 0.10 0.13 0.15 0.12 0.12 0.18 0.20 0.23 0.23 0.20 0.18 0.13
0.01 0.00 0.00 0.00 0.00 0.00 0.00 0.01 0.01 0.01 0.01 0.01 0.01 0.01 0.01 0.01 0.02 0.02 0.02 0.02 0.02 0.02 0.03 0.03 0.03 0.03 0.06 0.08 0.09 0.08 0.08 0.10 0.09 0.14 0.14 0.11 0.12 0.15 0.18 0.16 0.14 0.13 0.12
0.01 0.00 0.00 0.00 0.00 0.00 0.00 0.01 0.01 0.01 0.01 0.02 0.01 0.02 0.02 0.02 0.02 0.03 0.02 0.02 0.02 0.01 0.01 0.02 0.02 0.02 0.03 0.05 0.16 0.19 0.17 0.10 0.06 0.06 0.10 0.08 0.08 0.11 0.11 0.10 0.08 0.09 0.09
0.01 0.01 0.00 0.00 0.00 0.00 0.00 0.00 0.01 0.02 0.03 0.02 0.02 0.01 0.01 0.01 0.01 0.02 0.02 0.02 0.02 0.02 0.01 0.02 0.02 0.02 0.03 0.03 0.07 0.11 0.12 0.09 0.07 0.05 0.06 0.06 0.07 0.07 0.07 0.06 0.06 0.07 0.06
0.02 0.01 0.01 0.00 0.00 0.01 0.01 0.01 0.02 0.02 0.01 0.01 0.02 0.01 0.01 0.01 0.01 0.01 0.03 0.03 0.04 0.03 0.02 0.02 0.02 0.02 0.02 0.02 0.02 0.03 0.02 0.03 0.03 0.05 0.06 0.07 0.10 0.10 0.08 0.06 0.05 0.06 0.05
0.03 0.01 0.01 0.01 0.01 0.01 0.01 0.02 0.02 0.02 0.02 0.01 0.02 0.02 0.02 0.02 0.02 0.02 0.02 0.03 0.03 0.02 0.01 0.01 0.02 0.02 0.02 0.02 0.02 0.02 0.02 0.02 0.02 0.03 0.06 0.08 0.11 0.12 0.10 0.08 0.07 0.07 0.06
0.03 0.02 0.02 0.02 0.01 0.01 0.01 0.01 0.02 0.02 0.02 0.01 0.02 0.02 0.01 0.02 0.02 0.02 0.02 0.01 0.01 0.01 0.00 0.00 0.01 0.01 0.02 0.03 0.03 0.02 0.04 0.03 0.02 0.03 0.06 0.06 0.08 0.11 0.13 0.12 0.11 0.09 0.06
0.04 0.02 0.02 0.02 0.01 0.01 0.01 0.01 0.02 0.01 0.02 0.01 0.01 0.02 0.02 0.02 0.02 0.02 0.01 0.02 0.01 0.01 0.01 0.01 0.01 0.01 0.01 0.02 0.03 0.03 0.04 0.04 0.02 0.03 0.06 0.05 0.05 0.09 0.10 0.10 0.10 0.08 0.07
0.05 0.03 0.02 0.02 0.01 0.01 0.01 0.01 0.01 0.02 0.02 0.01 0.01 0.02 0.02 0.02 0.02 0.02 0.02 0.02 0.02 0.01 0.01 0.02 0.02 0.01 0.01 0.02 0.02 0.03 0.04 0.04 0.03 0.04 0.06 0.05 0.06 0.08 0.07 0.07 0.08 0.08 0.08
0.06 0.03 0.02 0.02 0.02 0.01 0.01 0.01 0.01 0.02 0.01 0.02 0.02 0.03 0.02 0.01 0.02 0.01 0.02 0.02 0.02 0.01 0.01 0.02 0.02 0.03 0.03 0.02 0.02 0.02 0.03 0.02 0.02 0.03 0.04 0.06 0.06 0.07 0.08 0.07 0.07 0.07 0.08
0.04 0.02 0.01 0.01 0.02 0.02 0.01 0.01 0.01 0.02 0.01 0.02 0.02 0.02 0.02 0.01 0.01 0.01 0.01 0.01 0.01 0.01 0.01 0.02 0.02 0.02 0.03 0.02 0.02 0.03 0.02 0.02 0.02 0.02 0.03 0.05 0.06 0.04 0.04 0.04 0.03 0.04 0.07
0.04 0.02 0.02 0.01 0.01 0.01 0.02 0.02 0.02 0.02 0.01 0.01 0.01 0.01 0.02 0.02 0.02 0.02 0.01 0.01 0.01 0.03 0.03 0.02 0.03 0.03 0.02 0.02 0.03 0.03 0.02 0.03 0.03 0.03 0.02 0.02 0.02 0.03 0.03 0.03 0.03 0.03 0.04
0.04 0.03 0.02 0.02 0.01 0.01 0.02 0.03 0.03 0.02 0.02 0.02 0.01 0.02 0.02 0.03 0.03 0.03 0.03 0.04 0.04 0.05 0.05 0.03 0.04 0.04 0.03 0.02 0.02 0.02 0.02 0.03 0.03 0.03 0.02 0.02 0.02 0.03 0.04 0.05 0.04 0.05 0.05
0.05 0.04 0.03 0.02 0.02 0.02 0.03 0.03 0.03 0.03 0.03 0.03 0.02 0.02 0.03 0.03 0.05 0.06 0.05 0.05 0.05 0.04 0.04 0.05 0.05 0.04 0.03 0.04 0.06 0.05 0.05 0.05 0.03 0.02 0.02 0.02 0.03 0.03 0.03 0.04 0.05 0.05 0.04
0.10 0.06 0.05 0.04 0.03 0.02 0.03 0.03 0.03 0.03 0.03 0.03 0.02 0.02 0.03 0.04 0.05 0.05 0.04 0.03 0.03 0.03 0.05 0.06 0.06 0.05 0.03 0.05 0.05 0.06 0.07 0.06 0.04 0.02 0.03 0.04 0.04 0.02 0.02 0.03 0.04 0.05 0.06
0.13 0.09 0.09 0.06 0.04 0.03 0.03 0.04 0.04 0.03 0.03 0.03 0.02 0.02 0.02 0.04 0.05 0.07 0.06 0.04 0.04 0.04 0.04 0.04 0.07 0.06 0.05 0.05 0.04 0.05 0.05 0.04 0.05 0.04 0.03 0.03 0.04 0.04 0.05 0.06 0.06 0.07 0.08
0.14 0.09 0.09 0.08 0.06 0.04 0.04 0.03 0.03 0.03 0.03 0.02 0.02 0.01 0.03 0.05 0.04 0.07 0.07 0.04 0.05 0.06 0.05 0.04 0.05 0.06 0.06 0.06 0.05 0.04 0.04 0.03 0.03 0.04 0.04 0.05 0.05 0.03 0.05 0.06 0.05 0.06 0.07
0.11 0.09 0.07 0.08 0.08 0.07 0.06 0.03 0.02 0.03 0.03 0.03 0.03 0.03 0.03 0.03 0.03 0.06 0.09 0.05 0.06 0.06 0.06 0.06 0.05 0.06 0.07 0.06 0.07 0.07 0.07 0.05 0.03 0.04 0.05 0.05 0.04 0.04 0.05 0.04 0.04 0.03 0.03
0.06 0.08 0.08 0.08 0.09 0.13 0.12 0.06 0.04 0.03 0.03 0.03 0.03 0.03 0.03 0.04 0.04 0.05 0.06 0.06 0.06 0.04 0.02 0.02 0.03 0.05 0.08 0.09 0.08 0.08 0.08 0.07 0.05 0.04 0.05 0.04 0.03 0.03 0.03 0.02 0.02 0.03 0.03
MSLP
1011.84 1011.27 1010.79 1010.50 1010.43 1010.54 1010.76 1010.98 1011.11 1011.08 1010.86 1010.49 1010.04 1009.58 1009.19 1008.91 1008.75 1008.68 1008.65 1008.60 1008.49 1008.30 1008.05 1007.76 1007.47 1007.21 1007.02 1006.92 1006.91 1006.99 1007.15 1007.39 1007.71 1008.11 1008.58 1009.10 1009.64 1010.18 1010.68 1011.11 1011.46 1011.74 1011.97
1011.78 1011.31 1010.91 1010.67 1010.62 1010.72 1010.91 1011.09 1011.20 1011.15 1010.96 1010.64 1010.26 1009.88 1009.57 1009.36 1009.23 1009.17 1009.14 1009.08 1008.98 1008.82 1008.63 1008.42 1008.23 1008.08 1007.99 1007.96 1007.98 1008.06 1008.18 1008.35 1008.58 1008.89 1009.26 1009.68 1010.14 1010.60 1011.03 1011.42 1011.73 1011.99 1012.22
1011.62 1011.25 1010.94 1010.77 1010.74 1010.85 1011.03 1011.20 1011.29 1011.26 1011.10 1010.84 1010.54 1010.25 1010.01 1009.84 1009.73 1009.66 1009.60 1009.50 1009.37 1009.21 1009.04 1008.88 1008.77 1008.70 1008.69 1008.73 1008.79 1008.88 1009.00 1009.14 1009.33 1009.57 1009.88 1010.23 1010.62 1011.02 1011.39 1011.73 1012.02 1012.27 1012.50
1011.37 1011.12 1010.91 1010.81 1010.83 1010.96 1011.14 1011.30 1011.40 1011.39 1011.27 1011.07 1010.84 1010.62 1010.44 1010.30 1010.20 1010.11 1010.00 1009.86 1009.69 1009.50 1009.33 1009.20 1009.13 1009.13 1009.18 1009.27 1009.38 1009.50 1009.63 1009.78 1009.96 1010.18 1010.44 1010.76 1011.09 1011.44 1011.76 1012.06 1012.33 1012.58 1012.82
1011.12 1010.97 1010.86 1010.84 1010.92 1011.08 1011.27 1011.43 1011.53 1011.53 1011.45 1011.30 1011.13 1010.96 1010.82 1010.71 1010.60 1010.48 1010.33 1010.15 1009.95 1009.75 1009.58 1009.47 1009.43 1009.46 1009.56 1009.69 1009.83 1009.98 1010.14 1010.30 1010.48 1010.70 1010.96 1011.25 1011.56 1011.86 1012.15 1012.42 1012.67 1012.92 1013.16
1010.94 1010.88 1010.86 1010.92 1011.05 1011.24 1011.43 1011.59 1011.68 1011.69 1011.63 1011.51 1011.38 1011.25 1011.14 1011.04 1010.93 1010.80 1010.63 1010.43 1010.21 1010.01 1009.85 1009.76 1009.74 1009.80 1009.92 1010.07 1010.23 1010.39 1010.56 1010.74 1010.94 1011.17 1011.43 1011.72 1012.01 1012.29 1012.56 1012.80 1013.03 1013.26 1013.51
1010.89 1010.90 1010.96 1011.08 1011.25 1011.45 1011.65 1011.79 1011.86 1011.86 1011.80 1011.69 1011.58 1011.48 1011.39 1011.31 1011.21 1011.08 1010.91 1010.72 1010.52 1010.34 1010.21 1010.15 1010.15 1010.22 1010.34 1010.48 1010.63 1010.79 1010.96 1011.14 1011.35 1011.60 1011.87 1012.16 1012.44 1012.71 1012.96 1013.17 1013.38 1013.59 1013.82
1010.98 1011.05 1011.16 1011.33 1011.53 1011.73 1011.90 1012.02 1012.06 1012.03 1011.96 1011.86 1011.76 1011.68 1011.61 1011.54 1011.46 1011.36 1011.22 1011.06 1010.90 1010.76 1010.66 1010.63 1010.65 1010.72 1010.82 1010.94 1011.07 1011.20 1011.35 1011.53 1011.74 1011.99 1012.27 1012.56 1012.84 1013.10 1013.33 1013.53 1013.70 1013.88 1014.08
1011.18 1011.29 1011.45 1011.65 1011.85 1012.04 1012.18 1012.26 1012.26 1012.20 1012.11 1012.01 1011.93 1011.86 1011.82 1011.77 1011.72 1011.65 1011.55 1011.43 1011.32 1011.23 1011.17 1011.17 1011.20 1011.26 1011.35 1011.43 1011.52 1011.61 1011.73 1011.88 1012.08 1012.33 1012.62 1012.91 1013.20 1013.45 1013.66 1013.83 1013.97 1014.11 1014.26
1011.40 1011.56 1011.76 1011.97 1012.18 1012.34 1012.45 1012.48 1012.45 1012.36 1012.26 1012.17 1012.09 1012.05 1012.03 1012.02 1011.99 1011.95 1011.89 1011.81 1011.74 1011.69 1011.67 1011.68 1011.72 1011.78 1011.84 1011.89 1011.94 1011.99 1012.08 1012.20 1012.39 1012.63 1012.90 1013.20 1013.48 1013.72 1013.91 1014.05 1014.16 1014.26 1014.36
1011.56 1011.78 1012.01 1012.24 1012.44 1012.58 1012.66 1012.65 1012.59 1012.50 1012.39 1012.31 1012.26 1012.25 1012.26 1012.27 1012.27 1012.26 1012.22 1012.17 1012.12 1012.09 1012.09 1012.11 1012.15 1012.20 1012.23 1012.26 1012.28 1012.30 1012.36 1012.46 1012.63 1012.85 1013.12 1013.40 1013.67 1013.90 1014.07 1014.19 1014.27 1014.33 1014.39
1011.61 1011.88 1012.15 1012.40 1012.60 1012.73 1012.78 1012.76 1012.68 1012.59 1012.50 1012.45 1012.43 1012.45 1012.49 1012.52 1012.54 1012.54 1012.51 1012.47 1012.42 1012.40 1012.39 1012.41 1012.45 1012.48 1012.50 1012.51 1012.52 1012.53 1012.57 1012.66 1012.80 1013.01 1013.25 1013.51 1013.76 1013.97 1014.13 1014.24 1014.29 1014.32 1014.35
1011.52 1011.84 1012.15 1012.43 1012.63 1012.76 1012.80 1012.78 1012.72 1012.64 1012.58 1012.56 1012.58 1012.63 1012.69 1012.75 1012.78 1012.78 1012.75 1012.70 1012.64 1012.60 1012.59 1012.59 1012.61 1012.63 1012.65 1012.66 1012.66 1012.67 1012.71 1012.79 1012.91 1013.09 1013.31 1013.54 1013.76 1013.95 1014.09 1014.18 1014.23 1014.25 1014.26
1011.30 1011.68 1012.03 1012.33 1012.56 1012.69 1012.75 1012.75 1012.71 1012.66 1012.64 1012.66 1012.71 1012.79 1012.87 1012.94 1012.98 1012.98 1012.94 1012.88 1012.81 1012.75 1012.71 1012.69 1012.69 1012.71 1012.72 1012.74 1012.75 1012.77 1012.81 1012.88 1012.99 1013.13 1013.31 1013.49 1013.68 1013.84 1013.96 1014.05 1014.10 1014.12 1014.13
1011.02 1011.45 1011.84 1012.16 1012.41 1012.57 1012.66 1012.69 1012.68 1012.68 1012.69 1012.74 1012.82 1012.91 1013.01 1013.10 1013.14 1013.15 1013.11 1013.04 1012.96 1012.89 1012.82 1012.79 1012.77 1012.78 1012.79 1012.81 1012.84 1012.87 1012.92 1012.97 1013.05 1013.16 1013.28 1013.41 1013.54 1013.66 1013.76 1013.84 1013.90 1013.94 1013.97
1010.76 1011.21 1011.62 1011.97 1012.25 1012.45 1012.58 1012.65 1012.69 1012.73 1012.77 1012.84 1012.93 1013.03 1013.14 1013.23 1013.28 1013.30 1013.28 1013.23 1013.16 1013.08 1013.01 1012.96 1012.93 1012.92 1012.94 1012.96 1012.99 1013.03 1013.07 1013.11 1013.16 1013.21 1013.26 1013.32 1013.39 1013.45 1013.53 1013.60 1013.67 1013.73 1013.78
1010.57 1011.02 1011.44 1011.81 1012.12 1012.36 1012.54 1012.68 1012.77 1012.85 1012.92 1012.99 1013.08 1013.17 1013.26 1013.35 1013.43 1013.48 1013.49 1013.48 1013.44 1013.38 1013.32 1013.26 1013.22 1013.20 1013.20 1013.22 1013.25 1013.29 1013.32 1013.33 1013.34 1013.33 1013.31 1013.29 1013.28 1013.28 1013.31 1013.36 1013.43 1013.51 1013.59
1010.48 1010.91 1011.32 1011.70 1012.04 1012.33 1012.58 1012.79 1012.94 1013.06 1013.15 1013.21 1013.28 1013.34 1013.42 1013.50 1013.59 1013.67 1013.74 1013.78 1013.79 1013.78 1013.74 1013.69 1013.64 1013.61 1013.59 1013.60 1013.63 1013.65 1013.67 1013.67 1013.63 1013.56 1013.47 1013.37 1013.27 1013.20 1013.17 1013.18 1013.23 1013.31 1013.39
1010.46 1010.87 1011.26 1011.64 1012.01 1012.37 1012.69 1012.97 1013.20 1013.36 1013.46 1013.51 1013.54 1013.57 1013.61 1013.68 1013.78 1013.90 1014.02 1014.13 1014.21 1014.25 1014.25 1014.21 1014.17 1014.12 1014.10 1014.09 1014.11 1014.13 1014.14 1014.12 1014.05 1013.93 1013.77 1013.59 1013.41 1013.25 1013.15 1013.10 1013.11 1013.16 1013.22
1010.50 1010.86 1011.22 1011.60 1012.01 1012.43 1012.84 1013.21 1013.50 1013.72 1013.84 1013.88 1013.87 1013.85 1013.84 1013.89 1013.99 1014.14 1014.32 1014.49 1014.64 1014.74 1014.78 1014.77 1014.73 1014.68 1014.65 1014.64 1014.66 1014.68 1014.70 1014.67 1014.59 1014.44 1014.23 1013.98 1013.72 1013.48 1013.28 1013.15 1013.09 1013.08 1013.10
1010.52 1010.84 1011.17 1011.55 1011.99 1012.47 1012.96 1013.43 1013.81 1014.08 1014.23 1014.26 1014.22 1014.15 1014.10 1014.12 1014.21 1014.37 1014.59 1014.83 1015.04 1015.19 1015.27 1015.30 1015.27 1015.23 1015.20 1015.20 1015.22 1015.27 1015.31 1015.31 1015.24 1015.08 1014.84 1014.54 1014.20 1013.87 1013.59 1013.36 1013.21 1013.11 1013.05
1010.49 1010.77 1011.07 1011.45 1011.91 1012.45 1013.03 1013.58 1014.05 1014.39 1014.57 1014.61 1014.55 1014.45 1014.36 1014.34 1014.42 1014.59 1014.84 1015.11 1015.37 1015.57 1015.69 1015.74 1015.73 1015.71 1015.69 1015.71 1015.77 1015.85 1015.93 1015.97 1015.93 1015.79 1015.55 1015.21 1014.82 1014.42 1014.03 1013.71 1013.45 1013.25 1013.09
1010.38 1010.63 1010.91 1011.28 1011.76 1012.35 1012.99 1013.63 1014.17 1014.58 1014.81 1014.88 1014.82 1014.70 1014.59 1014.55 1014.61 1014.78 1015.04 1015.34 1015.62 1015.85 1016.00 1016.07 1016.09 1016.08 1016.10 1016.15 1016.25 1016.38 1016.52 1016.61 1016.63 1016.52 1016.29 1015.95 1015.52 1015.05 1014.59 1014.16 1013.79 1013.49 1013.23
1010.19 1010.43 1010.70 1011.06 1011.54 1012.15 1012.84 1013.53 1014.15 1014.62 1014.90 1015.01 1014.98 1014.87 1014.76 1014.71 1014.77 1014.94 1015.20 1015.51 1015.81 1016.05 1016.22 1016.32 1016.35 1016.37 1016.41 1016.50 1016.65 1016.84 1017.03 1017.18 1017.25 1017.19 1016.99 1016.65 1016.21 1015.70 1015.17 1014.67 1014.21 1013.81 1013.46
1009.94 1010.20 1010.46 1010.80 1011.28 1011.89 1012.59 1013.31 1013.97 1014.49 1014.83 1014.99 1015.01 1014.94 1014.86 1014.83 1014.90 1015.08 1015.34 1015.65 1015.96 1016.21 1016.39 1016.50 1016.55 1016.59 1016.66 1016.78 1016.96 1017.19 1017.44 1017.64 1017.75 1017.74 1017.57 1017.25 1016.81 1016.29 1015.73 1015.18 1014.66 1014.18 1013.75
1009.64 1009.93 1010.20 1010.54 1011.00 1011.59 1012.27 1012.99 1013.66 1014.22 1014.61 1014.83 1014.91 1014.90 1014.87 1014.89 1015.00 1015.20 1015.47 1015.79 1016.09 1016.35 1016.54 1016.65 1016.72 1016.77 1016.86 1017.00 1017.20 1017.46 1017.73 1017.96 1018.11 1018.12 1017.99 1017.70 1017.29 1016.78 1016.23 1015.66 1015.10 1014.58 1014.09
Thickness
5800 5801 5800 5799 5797 5795 5793 5791 5789 5788 5786 5785 5784 5783 5782 5780 5779 5778 5776 5775 5774 5773 5772 5771 5770 5769 5768 5766 5765 5764 5763 5762 5761 5760 5759 5759 5758 5757 5756 5754 5753 5751 5750
5807 5803 5801 5799 5797 5795 5792 5790 5788 5786 5785 5784 5782 5781 5779 5778 5777 5775 5774 5773 5772 5771 5770 5769 5768 5767 5765 5764 5763 5762 5761 5760 5759 5758 5758 5757 5756 5755 5754 5752 5751 5750 5749
5808 5804 5801 5799 5797 5794 5791 5789 5787 5785 5784 5782 5780 5778 5777 5776 5775 5773 5772 5771 5770 5769 5768 5767 5766 5764 5762 5761 5761 5760 5760 5759 5758 5757 5756 5755 5754 5753 5751 5750 5749 5748 5747
5809 5805 5802 5799 5796 5793 5790 5788 5786 5784 5782 5781 5778 5776 5775 5774 5773 5771 5770 5769 5768 5767 5766 5765 5763 5762 5760 5759 5758 5758 5757 5757 5756 5756 5755 5753 5752 5751 5750 5749 5747 5746 5745
5809 5805 5802 5799 5796 5792 5789 5786 5784 5782 5780 5778 5776 5774 5773 5772 5770 5769 5768 5767 5766 5765 5764 5763 5761 5760 5759 5758 5757 5756 5756 5755 5755 5754 5753 5752 5751 5749 5748 5747 5746 5744 5743
5808 5805 5802 5798 5795 5792 5788 5785 5783 5780 5778 5776 5774 5773 5771 5769 5768 5767 5766 5765 5764 5763 5762 5761 5759 5759 5758 5757 5756 5755 5755 5754 5753 5752 5751 5750 5749 5748 5747 5745 5744 5742 5741
5807 5804 5801 5798 5794 5791 5787 5784 5781 5779 5776 5774 5772 5770 5769 5767 5766 5765 5764 5763 5762 5761 5760 5759 5758 5757 5756 5755 5755 5754 5753 5751 5751 5750 5749 5748 5748 5746 5745 5744 5743 5741 5740
5807 5803 5799 5796 5793 5789 5786 5783 5780 5777 5775 5772 5770 5768 5767 5765 5764 5763 5762 5761 5760 5759 5758 5757 5756 5755 5754 5754 5753 5753 5751 5750 5749 5748 5747 5747 5745 5744 5743 5742 5740 5739 5738
5805 5801 5797 5793 5790 5787 5784 5782 5778 5776 5773 5770 5768 5766 5765 5763 5762 5761 5759 5758 5758 5757 5756 5755 5755 5754 5753 5752 5752 5751 5750 5749 5748 5746 5745 5744 5743 5742 5741 5740 5739 5738 5737
5801 5798 5794 5791 5788 5785 5782 5779 5777 5774 5771 5769 5767 5765 5763 5761 5760 5759 5757 5756 5756 5755 5755 5754 5753 5752 5751 5751 5750 5749 5748 5747 5746 5745 5744 5743 5741 5740 5740 5738 5737 5736 5735
5795 5794 5792 5789 5787 5784 5781 5777 5775 5772 5769 5767 5765 5763 5762 5760 5759 5757 5756 5755 5754 5753 5752 5752 5751 5750 5750 5749 5748 5747 5746 5746 5745 5744 5743 5742 5741 5739 5739 5738 5736 5735 5734
5791 5791 5790 5788 5785 5782 5780 5776 5773 5770 5767 5765 5763 5762 5760 5758 5757 5756 5754 5753 5752 5751 5750 5750 5749 5748 5748 5747 5747 5746 5745 5745 5744 5744 5743 5741 5740 5739 5738 5737 5736 5734 5733
5793 5791 5789 5787 5785 5781 5778 5774 5771 5768 5766 5763 5761 5760 5758 5756 5755 5754 5753 5752 5751 5749 5749 5748 5747 5747 5746 5745 5745 5745 5744 5743 5743 5743 5742 5741 5739 5738 5737 5735 5734 5733 5731
5793 5791 5789 5787 5784 5781 5777 5774 5770 5768 5764 5762 5760 5758 5757 5755 5753 5752 5751 5750 5749 5747 5747 5746 5746 5745 5745 5744 5744 5743 5742 5742 5742 5741 5740 5740 5739 5738 5736 5734 5732 5731 5730
5793 5791 5790 5787 5783 5780 5776 5773 5770 5768 5764 5762 5759 5757 5756 5753 5751 5750 5749 5748 5747 5746 5745 5744 5744 5744 5743 5743 5742 5742 5741 5741 5740 5740 5739 5739 5738 5737 5735 5733 5731 5730 5729
5792 5790 5789 5785 5782 5779 5775 5772 5769 5766 5764 5761 5759 5757 5755 5753 5751 5749 5748 5746 5745 5745 5744 5743 5743 5742 5742 5741 5740 5740 5739 5739 5739 5738 5738 5738 5737 5736 5734 5733 5731 5730 5728
5793 5790 5788 5785 5781 5778 5775 5772 5769 5765 5763 5760 5758 5756 5754 5752 5751 5748 5747 5745 5744 5744 5743 5743 5742 5741 5740 5740 5738 5738 5738 5737 5737 5737 5737 5736 5735 5734 5733 5732 5731 5729 5727
5792 5788 5787 5786 5780 5776 5773 5770 5768 5764 5761 5759 5757 5755 5753 5751 5750 5747 5745 5744 5744 5743 5742 5741 5740 5738 5737 5736 5736 5736 5736 5735 5735 5735 5735 5734 5733 5733 5732 5731 5730 5728 5727
5792 5787 5783 5782 5778 5774 5771 5768 5765 5762 5760 5757 5755 5753 5751 5750 5748 5746 5744 5743 5742 5741 5740 5740 5738 5736 5734 5733 5734 5734 5733 5733 5733 5733 5733 5732 5732 5731 5730 5730 5729 5728 5727
5790 5786 5782 5779 5775 5772 5769 5765 5762 5759 5757 5755 5753 5751 5749 5748 5746 5744 5742 5741 5740 5738 5737 5737 5735 5735 5733 5732 5732 5731 5731 5731 5731 5731 5731 5731 5730 5730 5729 5728 5727 5726 5725
5785 5782 5779 5776 5773 5769 5765 5761 5757 5754 5753 5751 5751 5749 5747 5745 5744 5742 5740 5738 5737 5736 5735 5734 5733 5731 5729 5729 5726 5723 5725 5728 5728 5728 5729 5728 5728 5728 5727 5726 5725 5723 5722
5781 5779 5777 5774 5771 5767 5764 5761 5758 5753 5750 5748 5748 5746 5744 5743 5741 5739 5737 5735 5735 5733 5732 5731 5730 5727 5726 5726 5721 5716 5712 5715 5721 5725 5725 5724 5725 5725 5724 5724 5722 5721 5720
5776 5775 5775 5771 5768 5764 5761 5757 5753 5749 5745 5743 5742 5741 5741 5740 5738 5737 5735 5734 5733 5731 5729 5729 5728 5725 5721 5722 5721 5716 5708 5705 5710 5716 5719 5720 5721 5720 5721 5720 5719 5719 5717
5774 5773 5770 5767 5764 5759 5757 5752 5748 5743 5739 5738 5738 5737 5737 5736 5735 5734 5732 5731 5730 5729 5727 5727 5726 5724 5721 5717 5717 5717 5715 5712 5706 5705 5710 5714 5716 5716 5716 5717 5716 5715 5715
5772 5768 5766 5762 5758 5754 5752 5748 5745 5740 5738 5736 5735 5733 5732 5731 5731 5730 5729 5728 5726 5725 5724 5724 5723 5721 5719 5716 5714 5713 5712 5710 5708 5702 5700 5704 5708 5711 5712 5713 5712 5712 5711
5766 5764 5761 5757 5753 5750 5747 5745 5742 5737 5734 5731 5729 5727 5726 5726 5726 5726 5726 5724 5723 5722 5721 5720 5719 5718 5716 5714 5712 5710 5708 5705 5703 5701 5697 5697 5699 5703 5707 5709 5708 5708 5707